VA6NA Weather Reports


Display with metric or nautical units.
time (UTC)temp
F
wind
direction
speed
MPH
gust
MPH
rain 1hr
in
rain 24hr
in
rain mn
in
humidity
%
barometer
mb
20260507143046 59 0.0 0.0 0.00 0.00 0.00 57 1012.4
20260507142028 58 0.0 0.0 0.00 0.00 0.00 58 1012.3
20260507141023 57 0.0 0.0 0.00 0.00 0.00 59 1012.2
20260507140032 57 0.0 0.0 0.00 0.00 0.00 60 1012.1
20260507135032 57 0.0 0.0 0.00 0.00 0.00 60 1012.0
20260507134016 57 0.0 0.0 0.00 0.00 0.00 60 1012.0
20260507133016 56 0.0 0.0 0.00 0.00 0.00 62 1011.9
20260507132024 56 0.0 0.0 0.00 0.00 0.00 63 1011.8
20260507131019 56 0.0 0.0 0.00 0.00 0.00 64 1011.6
20260507130026 56 0.0 0.0 0.00 0.00 0.00 64 1011.6
20260507125026 55 0.0 0.0 0.00 0.00 0.00 65 1011.3
20260507124028 55 0.0 0.0 0.00 0.00 0.00 66 1011.4
20260507123023 54 0.0 0.0 0.00 0.00 0.00 67 1011.3
20260507122018 54 0.0 0.0 0.00 0.00 0.00 67 1011.1
20260507121216 54 0.0 0.0 0.00 0.00 0.00 67 1011.0
20260507120029 54 0.0 0.0 0.00 0.00 0.00 67 1010.9
20260507115030 55 0.0 0.0 0.00 0.00 0.00 66 1010.9
20260507114029 55 0.0 0.0 0.00 0.00 0.00 65 1010.7
20260507113049 56 0.0 0.0 0.00 0.00 0.00 65 1010.7
20260507112026 56 0.0 0.0 0.00 0.00 0.00 66 1010.7
20260507111021 56 0.0 0.0 0.00 0.00 0.00 66 1010.5
20260507110056 56 0.0 0.0 0.00 0.00 0.00 67 1010.2
20260507105017 56 0.0 0.0 0.00 0.00 0.00 67 1010.4
20260507104031 56 0.0 0.0 0.00 0.00 0.00 69 1010.4
20260507103048 55 0.0 0.0 0.00 0.00 0.00 70 1010.3
20260507102023 55 0.0 0.0 0.00 0.00 0.00 71 1010.2
20260507101019 54 0.0 0.0 0.00 0.00 0.00 71 1010.4
20260507100032 54 0.0 0.0 0.00 0.00 0.00 72 1010.2
20260507095029 53 0.0 0.0 0.00 0.00 0.00 72 1010.2
20260507094029 53 0.0 0.0 0.00 0.00 0.00 71 1010.3
20260507093030 54 0.0 0.0 0.00 0.00 0.00 71 1010.3
20260507092025 55 0.0 0.0 0.00 0.00 0.00 70 1010.2
20260507091027 55 0.0 0.0 0.00 0.00 0.00 70 1010.2
20260507090023 55 0.0 0.0 0.00 0.00 0.00 70 1010.2
20260507085017 55 0.0 0.0 0.00 0.00 0.00 69 1010.2
20260507084019 55 0.0 0.0 0.00 0.00 0.00 68 1010.2
20260507083031 56 0.0 0.0 0.00 0.00 0.00 67 1010.2
20260507082027 56 0.0 0.0 0.00 0.00 0.00 67 1010.2
20260507081028 56 0.0 0.0 0.00 0.00 0.00 66 1010.2
20260507080030 56 0.0 0.0 0.00 0.00 0.00 66 1010.2
20260507075031 56 0.0 0.0 0.00 0.00 0.00 65 1010.2
20260507074031 56 0.0 0.0 0.00 0.00 0.00 64 1010.1
20260507073032 56 0.0 0.0 0.00 0.00 0.00 64 1010.0
20260507072016 56 0.0 0.0 0.00 0.00 0.00 64 1010.0
20260507071016 56 0.0 0.0 0.00 0.00 0.00 63 1010.2
20260507070024 55 0.0 0.0 0.00 0.00 0.00 66 1010.2
20260507065019 54 0.0 0.0 0.00 0.00 0.00 67 1010.2
20260507064021 55 0.0 0.0 0.00 0.00 0.00 66 1010.2
20260507063017 55 0.0 0.0 0.00 0.00 0.00 64 1010.3
20260507062017 56 0.0 0.0 0.00 0.00 0.00 64 1010.4
20260507061037 57 0.0 0.0 0.00 0.00 0.00 62 1010.8
20260507060033 57 0.0 0.0 0.00 0.00 0.00 55 1010.6
20260507055034 58 0.0 0.0 0.00 0.00 0.00 57 1010.6
20260507054017 58 0.0 0.0 0.00 0.00 0.00 60 1010.5
20260507053030 59 0.0 0.0 0.00 0.00 0.00 60 1010.6
20260507052030 59 0.0 0.0 0.00 0.00 0.00 58 1010.8
20260507051025 59 0.0 0.0 0.00 0.00 0.00 58 1010.7
20260507050046 59 0.0 0.0 0.00 0.00 0.00 58 1010.4
20260507045021 59 0.0 0.0 0.00 0.00 0.00 57 1010.4
20260507044018 60 0.0 0.0 0.00 0.00 0.00 55 1010.2
20260507043031 60 0.0 0.0 0.00 0.00 0.00 54 1010.2
20260507042032 60 0.0 0.0 0.00 0.00 0.00 52 1010.1
20260507041033 62 0.0 0.0 0.00 0.00 0.00 49 1009.8
20260507040053 62 0.0 0.0 0.00 0.00 0.00 48 1009.6
20260507035017 63 0.0 0.0 0.00 0.00 0.00 47 1009.3
20260507034018 63 0.0 0.0 0.00 0.00 0.00 47 1009.4
20260507033051 63 0.0 0.0 0.00 0.00 0.00 47 1009.6
20260507032052 64 0.0 0.0 0.00 0.00 0.00 44 1009.8
20260507031027 64 0.0 0.0 0.00 0.00 0.00 44 1009.8
20260507030028 64 0.0 0.0 0.00 0.00 0.00 43 1009.7
20260507025023 64 0.0 0.0 0.00 0.00 0.00 39 1009.8
20260507024020 64 0.0 0.0 0.00 0.00 0.00 39 1009.7
20260507023047 64 0.0 0.0 0.00 0.00 0.00 38 1009.6
20260507022029 65 0.0 0.0 0.00 0.00 0.00 38 1009.5
20260507021019 65 0.0 0.0 0.00 0.00 0.00 37 1009.5
20260507020018 66 0.0 0.0 0.00 0.00 0.00 37 1009.3
20260507015021 66 0.0 0.0 0.00 0.00 0.00 37 1009.0
20260507014016 66 0.0 0.0 0.00 0.00 0.00 37 1008.9
20260507013017 67 0.0 0.0 0.00 0.00 0.00 36 1008.9
20260507012031 67 0.0 0.0 0.00 0.00 0.00 36 1008.9
20260507011032 67 0.0 0.0 0.00 0.00 0.00 35 1008.9
20260507010034 67 0.0 0.0 0.00 0.00 0.00 36 1008.9
20260507005028 68 0.0 0.0 0.00 0.00 0.00 35 1008.8
20260507004046 67 0.0 0.0 0.00 0.00 0.00 35 1008.6
20260507003020 67 0.0 0.0 0.00 0.00 0.00 35 1008.7
20260507002034 68 0.0 0.0 0.00 0.00 0.00 35 1008.8
20260507001016 69 0.0 0.0 0.00 0.00 0.00 34 1008.8
20260507000041 69 0.0 0.0 0.00 0.00 0.00 34 1008.6
20260506235018 69 0.0 0.0 0.00 0.00 0.00 33 1008.6
20260506234019 69 0.0 0.0 0.00 0.00 0.00 34 1008.7
20260506233020 68 0.0 0.0 0.00 0.00 0.00 34 1008.8
20260506232016 69 0.0 0.0 0.00 0.00 0.00 33 1008.8
20260506231017 68 0.0 0.0 0.00 0.00 0.00 34 1008.9
20260506230018 68 0.0 0.0 0.00 0.00 0.00 34 1009.0
20260506225018 68 0.0 0.0 0.00 0.00 0.00 34 1009.0
20260506224024 69 0.0 0.0 0.00 0.00 0.00 34 1009.1
20260506223045 69 0.0 0.0 0.00 0.00 0.00 33 1009.1
20260506222026 69 0.0 0.0 0.00 0.00 0.00 32 1009.2
20260506221022 70 0.0 0.0 0.00 0.00 0.00 32 1009.4
20260506220016 70 0.0 0.0 0.00 0.00 0.00 32 1009.6
20260506215017 69 0.0 0.0 0.00 0.00 0.00 32 1009.8
20260506214024 69 0.0 0.0 0.00 0.00 0.00 33 1010.0
20260506213019 69 0.0 0.0 0.00 0.00 0.00 33 1010.1
20260506212021 68 0.0 0.0 0.00 0.00 0.00 33 1010.2
20260506211022 68 0.0 0.0 0.00 0.00 0.00 32 1010.2
20260506210022 68 0.0 0.0 0.00 0.00 0.00 33 1010.5
20260506205024 68 0.0 0.0 0.00 0.00 0.00 34 1010.5
20260506204025 67 0.0 0.0 0.00 0.00 0.00 34 1010.5
20260506203026 66 0.0 0.0 0.00 0.00 0.00 35 1010.6
20260506202027 66 0.0 0.0 0.00 0.00 0.00 35 1010.7
20260506201023 65 0.0 0.0 0.00 0.00 0.00 35 1010.8
20260506200038 65 0.0 0.0 0.00 0.00 0.00 35 1010.9
20260506195018 65 0.0 0.0 0.00 0.00 0.00 34 1011.1
20260506194025 65 0.0 0.0 0.00 0.00 0.00 34 1011.2
20260506193021 66 0.0 0.0 0.00 0.00 0.00 35 1011.2
20260506192017 65 0.0 0.0 0.00 0.00 0.00 35 1011.3
20260506191024 65 0.0 0.0 0.00 0.00 0.00 36 1011.6
20260506190024 64 0.0 0.0 0.00 0.00 0.00 36 1011.6
20260506185026 63 0.0 0.0 0.00 0.00 0.00 37 1011.8
20260506184022 62 0.0 0.0 0.00 0.00 0.00 38 1011.9
20260506183017 62 0.0 0.0 0.00 0.00 0.00 38 1011.9
20260506182058 62 0.0 0.0 0.00 0.00 0.00 38 1011.8
20260506181032 62 0.0 0.0 0.00 0.00 0.00 38 1012.0
20260506180033 60 0.0 0.0 0.00 0.00 0.00 39 1012.0
20260506175047 60 0.0 0.0 0.00 0.00 0.00 39 1012.3
20260506174048 59 0.0 0.0 0.00 0.00 0.00 40 1012.4
20260506173043 59 0.0 0.0 0.00 0.00 0.00 40 1012.6
20260506172019 60 0.0 0.0 0.00 0.00 0.00 40 1012.7
20260506171032 59 0.0 0.0 0.00 0.00 0.00 41 1012.9
20260506170033 59 0.0 0.0 0.00 0.00 0.00 41 1012.9
20260506165016 58 0.0 0.0 0.00 0.00 0.00 42 1013.0
20260506164017 58 0.0 0.0 0.00 0.00 0.00 43 1013.1
20260506163039 57 0.0 0.0 0.00 0.00 0.00 43 1013.2
20260506162019 56 0.0 0.0 0.00 0.00 0.00 43 1013.2
20260506161020 55 0.0 0.0 0.00 0.00 0.00 45 1013.4
20260506160016 55 0.0 0.0 0.00 0.00 0.00 45 1013.6
20260506155017 55 0.0 0.0 0.00 0.00 0.00 44 1013.7
20260506154018 55 0.0 0.0 0.00 0.00 0.00 44 1013.7
20260506153045 53 0.0 0.0 0.00 0.00 0.00 44 1013.8
20260506152020 53 0.0 0.0 0.00 0.00 0.00 45 1013.9
20260506151016 53 0.0 0.0 0.00 0.00 0.00 45 1014.1
20260506150022 52 0.0 0.0 0.00 0.00 0.00 45 1014.2
20260506145038 51 0.0 0.0 0.00 0.00 0.00 46 1014.4
20260506144020 49 0.0 0.0 0.00 0.00 0.00 48 1014.4